Flag for Canada Weather past 2 weeks in MD of Lunenburg, Nova Scotia, Canada

Now
45 °F

Cool.


Feels Like: 42 °F
Forecast: 32 / 48 °F
Wind: 6 mph from Northwest

Location: McNabs Island - AUT


UV Index: 3 (Moderate)

Visibility: N/A


Pressure: 30.09 "Hg

Humidity: 59%

Dew point: 32 °F

Location of MD of LunenburgLocation

Historic Weather in MD of Lunenburg

°F

MD of Lunenburg temperature yesterday

Maximum temperature yesterday: 38 °F (at 2:00 PM)
Minimum temperature yesterday: 27 °F (at 6:00 AM)
Average temperature yesterday: 32 °F

Past Weeks' High & Low Weather Summary

 TemperatureHumidityPressure
High58 °F (Apr 15, 2:00 PM)100% (Apr 5, 9:00 PM)30.80 "Hg (Apr 5, 9:00 PM)
Low27 °F (Apr 18, 6:00 AM)25% (Apr 10, 2:00 PM)29.33 "Hg (Apr 9, 5:00 AM)
Average41 °F76%30.07 "Hg
* Reported Apr 4 9:00 PM — Apr 19 9:00 PM, MD of Lunenburg, Weather by CustomWeather, © 2014

Note: Actual official high and low records may vary slightly from our data, if they occured in-between our weather recording intervals... More about our weather records

Advertising

Historic Weather Conditions — Data for Previous 24 hours

 ConditionsComfort  
Time TempWeatherWind HumidityBarometerVisibility
9:00 PM
Apr 19
46 °FCool.2 mph58%30.07 "HgN/A
8:00 PM47 °FCool.6 mph55%30.04 "HgN/A
7:00 PM48 °FCool.5 mph54%30.03 "HgN/A
6:00 PM49 °FCool.6 mph49%30.00 "HgN/A
5:00 PM49 °FCool.8 mph46%29.99 "HgN/A
4:00 PM48 °FCool.2 mph61%29.99 "HgN/A
3:00 PM47 °FCool.5 mph59%29.99 "HgN/A
2:00 PM49 °FCool.3 mph52%30.01 "HgN/A
1:00 PM42 °FQuite cool.3 mph59%30.03 "HgN/A
12:00 PM41 °FQuite cool.5 mph63%30.05 "HgN/A
11:00 AM38 °FChilly.5 mph74%30.08 "HgN/A
10:00 AM40 °FQuite cool.5 mph69%30.09 "HgN/A
9:00 AM36 °FChilly.3 mph83%30.11 "HgN/A
8:00 AM35 °FChilly.2 mph93%30.11 "HgN/A
7:00 AM35 °FChilly.3 mph94%30.12 "HgN/A
6:00 AM34 °FChilly.2 mph89%30.11 "HgN/A
5:00 AM35 °FChilly.1 mph94%30.14 "HgN/A
4:00 AM35 °FChilly.1 mph95%30.18 "HgN/A
3:00 AM34 °FChilly.2 mph89%30.19 "HgN/A
2:00 AM34 °FChilly.6 mph90%30.20 "HgN/A
1:00 AM34 °FChilly.7 mph92%30.24 "HgN/A
12:00 AM34 °FChilly.6 mph93%30.27 "HgN/A
11:00 PM
Apr 18
34 °FChilly.6 mph89%30.29 "HgN/A
10:00 PM33 °FChilly.7 mph85%30.33 "HgN/A
Weather by CustomWeather, © 2014

See weather overview